SL-24 R/B

Satellite information

Favourite Embed

Satellite Type and Status

ROCKET BODYIN ORBIT

Key statistics

Satellite SL-24 R/B at a glance.

Uptime

4005

Days in orbit

Revolutions

≈ 13.2

Per day

Orbit

SSO

Sun Synchronous Orbit

Inclination

97.2

Latest

Satellite identification and parameters

Extended collection of information and parameters for SL-24 R/B.

Object identification

Identified? True

Debris? False

Object name: SL-24 R/B

International designator: 2014-070F

Object number (NORAD): 40303

Object ID (CCSDS): 40303

Country: COMMONWEALTH OF INDEPENDENT STATES (CIS)

Current information (Y/N): Y

RCS size: LARGE

Orbital parameters

Period: 109.503 minutes

Inclination: 97.1527 deg

SMA: 7581.907 km

Apoapsis: 1923.828 km

Periapsis: 483.716 km

RAAN: 261.299 deg

Eccentricy: 0.0949703

Argument of periapsis: 69.765 deg

Mean anomaly: 300.2944 deg

Mean motion: 13.15028349 rev/day

Mean motion (dot): 0.00000795 rev/day2

B* drag term: 0.00018537 1/REarth

Two-line elements (TLE)

Creation date: Oct. 23, 2025, 10:06 p.m.

Reference frame: TEME

Reference center: EARTH

Epoch: Oct. 23, 2025, 11:43 a.m. UTC

TLE line 0: 0 SL-24 R/B

TLE line 1: 1 40303U 14070F 25296.48868860 .00000795 00000-0 18537-3 0 9992

TLE line 2: 2 40303 97.1527 261.2990 0949703 69.7650 300.2944 13.15028349525513

Live tracking on map

Real-time ground track for satellite SL-24 R/B.

In-orbit conjunctions

A list of the most updated potential collisions computed for object SL-24 R/B.

Target Orbit TCA Probability of collision Miss distance Type
TITAN 4B R/B LEO 2024-11-14 12:01:21 0.002685295 604.0 (m) ROCKET BODY
METEOR 2-7 LEO 2024-10-12 14:54:20 0.0003995611 886.0 (m) PAYLOAD

Associated space launch

SL-24 R/B was lifted into orbit during the mission ‘Dnepr 1 | ASNARO’, on board a Dnepr space rocket.

The launch took place on Nov. 6, 2014, 7:35 a.m. from 370/13.

For more information about the launch, click the button.

Launch to space Dnepr 1 | ASNARO
Dnepr 1 | ASNARO

Agency: N/A

Status: Launch Successful

Launch date: Nov. 6, 2014, 7:35 a.m. UTC

Rocket: Dnepr

Launch pad: 370/13

Location: Dombarovskiy, Russian Federation

...

Latest news about this satellite

There are no fresh news available about this satellite. Check back as we update our databases every day.


Newsletter sign-up

Weekly statistics, charts and insights to help you stay on top of the space industry.